World > North America > United States > New York > Beekmantown  

Beekmantown, NY Hourly Weather Updates

Feedback E-mail the Weather

Quick Clicks

Beekmantown, NY Weather Maps

°F °C°F °C
Beekmantown Weather Map
UTC Time: 4/22/2024, 10:48
Your Time:

Beekmantown, NY Regional Weather

Expires:202404221100;;179146
ASUS41 KBTV 221030
RWRBTV
VERMONT REGIONAL WEATHER ROUNDUP
NATIONAL WEATHER SERVICE BURLINGTON VT
600 AM EDT MON APR 22 2024

NOTE: "FAIR" INDICATES FEW OR NO CLOUDS BELOW 12,000 FEET WITH NO 
SIGNIFICANT WEATHER AND/OR OBSTRUCTIONS TO VISIBILITY.

* THESE REPORTS ARE NOT UNDER NWS QUALITY CONTROL AND/OR DO NOT
  REPORT WEATHER SUCH AS PRECIPITATION AND FOG.


NYZ007-026>031-035-052-083-087-221100-
_____NORTHERN NEW YORK_
  
CITY           SKY/WX    TMP DP  RH WIND       PRES   REMARKS
PLATTSBURGH    PTCLDY    30  18  60 NW9       30.03R WCI  22 TC  -1   
SARANAC LAKE   MOCLDY    23  17  78 CALM      29.96R TC  -5           
MASSENA        CLEAR     30  20  66 NW6       30.06R WCI  24 TC  -1   
OGDENSBURG*    CLEAR     27  23  86 N5        30.05R WCI  21 TC  -3   
POTSDAM*       CLEAR     25  23  93 CALM      30.06R TC  -4           
WATERTOWN      CLEAR     30  24  78 E5        30.06R WCI  25 TC  -1   
FT DRUM        CLEAR     29  22  74 E5        30.02R WCI  24 TC  -2   
ALBANY         PTCLDY    39  28  64 NW8       30.01R TC   4           
GLENS FALLS    PTCLDY    35  17  47 N7        30.01R WCI  29 TC   2   

$$

SKY/WX - Weather  TMP - Temperature  DP - Dew Point  RH - Humidity
WIND - Wind Direction/Speed PRES - Barometric Pressure VSB - Visibility
WCI - Wind Chill Index E13G22 Wind - East Wind 13 mph/Gusts of 22 mph

Trending Headlines

Trending Entertainment Headlines

Beekmantown Radar Loop

Use the map search tool if you want to place a location marker on the radar map...

Beekmantown Quick Facts

National Two Day Weather Forecast


E-mail the Beekmantown Weather Forecast

Voice your opinion or tell us about page issues...